Погода в Найсне

ЮАР     34°02′00″S   23°03′02″E
темп.,
°C
ветер,
м/с
пор.,
м/с
влажн.,
%
обл.,
%
осадки,
мм/ч
давл.,
гПа
погр.,
м
8 марта, пн
пн823:00+17зюз2392100 0.7 1015316
02:00+16з1392100 0.8 1012246
05:00+16з2594100 0.2 1011348
08:00+16юз3592100 1.3 1012450
11:00+16зюз2385100 0.7 1013505
14:00+18юз3472100 0.8 1011780
17:00+17ююз3371100 0.0 1010747
20:00+16ююв0179100 0.0 1010215
9 марта, вт
вт923:00+15зсз0181100 0.0 1012183
02:00+15сз1180100 0.0 1011127
05:00+15с118388 0.0 1011128
08:00+17ссв127291 0.0 1010324
11:00+21ююз2256100 0.0 1008743
14:00+21ю3358100 0.0 1005519
17:00+20ю446374 0.0 1004422
20:00+15ссв128583 0.0 100656
10 марта, ср
ср1023:00+18с22680 0.0 100629
02:00+19ссз22510 0.0 100526
05:00+19с225118 0.0 100637
08:00+20юв126054 0.0 1007106
11:00+22ю125997 0.0 1007399
14:00+27ююз354553 0.0 1006941
17:00+19зюз128261 0.2 1006383
20:00+18с129179 2.1 100872
11 марта, чт
чт1123:00+18зсз1294100 1.8 101096
02:00+18сз2594100 4.4 1010371
05:00+18зюз3695100 0.9 1011404
08:00+18зюз239499 2.3 1013285
11:00+18юв2292100 1.3 1014280
14:00+22юв336490 1.4 1014784
17:00+21вюв456894 0.0 1013554
20:00+17всв368797 0.4 1014249
12 марта, пт
пт1223:00+18св1292100 1.1 101575
02:00+18св1291100 1.8 101342
05:00+18ссв229086 0.0 101236
08:00+19ссв228193 0.0 101268
11:00+29ю1343100 0.0 1011743
14:00+28ююв3447100 0.0 1009709
17:00+26вюв365498 0.0 1007324
20:00+22ссв117397 0.0 100923